Home   Weather   Melbourne Bluff   Past weeks
Flag for Australia

Past Weather in Melbourne Bluff, Heard and McDonald Islands, Australia — Yesterday and Last 2 Weeks

Now
59 °F

Passing clouds.


Feels Like: 59 °F
Forecast: 61 / 44 °F
Wind: 5 mph from Northeast

Location: Belmont Perth Airport

Current Time: Jul 9, 2020 at 10:01:25 am

Latest Report: Jul 9, 2020 at 9:00 am


Visibility: N/A

Pressure: 30.33 "Hg

Humidity: 55%

Dew Point: 43 °F

Location of Melbourne BluffLocation

Past Weather in Melbourne Bluff — Graph

°F

Melbourne Bluff Temperature Yesterday

Maximum temperature yesterday: 63 °F (at 8:30 am)
Minimum temperature yesterday: 43 °F (at 8:30 pm)
Average temperature yesterday: 52 °F

High & Low Weather Summary for the Past Weeks

 TemperatureHumidityPressure
High73 °F (Jul 5, 10:00 am)100% (Jun 26, 3:00 am)30.42 "Hg (Jun 26, 3:00 am)
Low39 °F (Jul 2, 1:30 am)33% (Jul 5, 10:30 am)29.68 "Hg (Jun 28, 7:30 pm)
Average58 °F76%30.08 "Hg
* Reported Jun 24 9:00 am — Jul 9 9:00 am, Melbourne Bluff. Weather by CustomWeather, © 2020

Note: Actual official high and low records may vary slightly from our data, if they occured in-between our weather recording intervals... More about our weather records

Melbourne Bluff Weather History for the Previous 24 Hours

Scroll right to see more
 ConditionsComfort  
Time TempWeatherWind HumidityBarometerVisibility
9:00 am
Thu, Jul 9
59 °FPassing clouds.5 mph55%30.33 "HgN/A
8:30 am57 °FPassing clouds.2 mph63%30.33 "HgN/A
8:00 am57 °FSunny.6 mph63%30.33 "Hg10 mi
7:30 am57 °FPassing clouds.5 mph63%30.33 "HgN/A
7:00 am55 °FSunny.7 mph67%30.36 "Hg10 mi
6:30 am54 °FSunny.8 mph82%30.33 "Hg10 mi
6:00 am50 °FSunny.No wind94%30.33 "Hg10 mi
5:30 am46 °FSunny.No wind100%30.33 "Hg10 mi
5:00 am43 °FSunny.1 mph93%30.33 "Hg10 mi
4:30 am39 °FSunny.6 mph100%30.30 "Hg10 mi
4:00 am41 °FPassing clouds.7 mph93%30.30 "HgN/A
3:30 am41 °FClear.7 mph93%30.27 "Hg10 mi
3:00 am41 °FPassing clouds.7 mph100%30.27 "HgN/A
2:30 am43 °FPassing clouds.8 mph93%30.27 "HgN/A
2:00 am43 °FPassing clouds.8 mph100%30.27 "HgN/A
1:30 am45 °FPassing clouds.6 mph100%30.27 "HgN/A
1:00 am45 °FPassing clouds.6 mph93%30.27 "HgN/A
12:00 am43 °FPassing clouds.No wind100%30.27 "HgN/A
11:30 pm
Wed, Jul 8
43 °FPassing clouds.3 mph93%30.24 "HgN/A
11:00 pm43 °FClear.No wind100%30.24 "Hg10 mi
10:30 pm43 °FPassing clouds.1 mph100%30.24 "HgN/A
10:00 pm43 °FClear.No wind93%30.24 "Hg10 mi
9:30 pm43 °FClear.3 mph93%30.24 "Hg10 mi
9:00 pm43 °FClear.6 mph100%30.24 "Hg10 mi
8:30 pm43 °FClear.No wind100%30.24 "Hg10 mi
8:00 pm45 °FClear.No wind93%30.24 "Hg10 mi
7:30 pm45 °FClear.No wind93%30.24 "Hg10 mi
7:00 pm46 °FClear.No wind93%30.24 "Hg10 mi
6:30 pm46 °FClear.No wind93%30.24 "Hg10 mi
6:00 pm46 °FPassing clouds.6 mph93%30.24 "HgN/A
5:30 pm48 °FPassing clouds.5 mph87%30.21 "HgN/A
5:00 pm50 °FPassing clouds.7 mph82%30.21 "HgN/A
4:30 pm52 °FPassing clouds.8 mph88%30.21 "HgN/A
4:00 pm50 °FPassing clouds.7 mph94%30.21 "HgN/A
3:30 pm52 °FPassing clouds.5 mph82%30.21 "HgN/A
3:00 pm54 °FPassing clouds.5 mph82%30.21 "HgN/A
2:30 pm57 °FPassing clouds.6 mph67%30.21 "HgN/A
2:00 pm59 °FBroken clouds.7 mph68%30.21 "HgN/A
1:30 pm59 °FBroken clouds.9 mph72%30.21 "HgN/A
1:00 pm59 °FScattered clouds.7 mph72%30.18 "HgN/A
12:30 pm59 °FScattered clouds.7 mph72%30.18 "HgN/A
12:00 pm59 °FScattered clouds.5 mph72%30.18 "HgN/A
11:30 am59 °FBroken clouds.6 mph72%30.18 "HgN/A
11:00 am57 °FPartly sunny.5 mph82%30.21 "HgN/A
10:46 am57 °FBroken clouds.3 mph82%30.21 "HgN/A
10:30 am57 °FDrizzle. Broken clouds.9 mph82%30.21 "Hg4 mi
10:21 am57 °FDrizzle. Broken clouds.13 mph82%30.21 "Hg4 mi
Weather by CustomWeather, © 2020

See weather overview